Date,TemperatureHighF,TemperatureAvgF,TemperatureLowF,DewpointHighF,DewpointAvgF,DewpointLowF,HumidityHigh,HumidityAvg,HumidityLow,PressureMaxIn,PressureMinIn,WindSpeedMaxMPH,WindSpeedAvgMPH,GustSpeedMaxMPH,PrecipitationSumIn
2014-3-3,-7,-8,-8,-6,-6,-6,93,92,90,16.31,16.31,6,2,6,0.00
2014-3-4,19,4,-15,11,-1,-13,100,75,28,16.31,16.31,9,2,11,0.00
2014-3-5,20,9,-4,11,7,0,100,89,55,16.28,16.28,12,1,12,0.01
2014-3-6,31,8,-9,0,-4,-13,93,55,16,0.00,40.00,7,2,11,0.00
2014-3-7,39,23,6,8,-1,-13,57,34,14,16.27,16.27,15,3,15,0.00
2014-3-8,39,25,16,28,17,4,92,68,43,16.25,16.25,12,2,12,0.00
2014-3-9,30,18,7,14,8,0,100,65,27,16.26,16.26,13,2,15,0.00
2014-3-10,31,24,15,29,22,14,100,92,71,16.26,16.26,10,1,10,0.07
2014-3-11,39,32,26,37,30,26,100,93,67,16.24,16.24,17,2,17,0.17
2014-3-12,31,23,11,31,24,11,100,100,100,0.00,40.00,15,2,20,0.01
2014-3-13,11,6,0,11,5,0,100,90,67,16.27,16.27,21,5,22,0.00
2014-3-14,25,13,-3,21,9,0,100,81,59,16.29,16.29,15,3,16,0.01
2014-3-15,48,32,23,37,28,21,100,84,54,16.25,16.25,18,3,22,0.40
2014-3-16,23,11,0,23,12,-6,100,98,77,16.25,16.25,18,3,20,0.04
2014-3-17,24,7,-7,23,8,-6,100,95,66,16.29,16.29,10,2,13,0.00
2014-3-18,40,16,-5,35,13,0,100,83,41,16.30,16.26,9,2,9,0.00
2014-3-19,34,26,16,31,18,0,100,71,45,16.26,16.25,17,3,17,0.00
2014-3-20,39,30,26,35,30,26,100,97,70,16.24,16.24,15,2,16,0.17
2014-3-21,32,26,19,29,24,14,100,91,59,16.24,16.24,17,4,20,0.05
2014-3-22,33,23,14,33,23,14,100,97,81,16.26,16.26,16,3,22,0.01
2014-3-23,27,18,3,28,16,0,100,91,53,16.25,16.25,17,3,18,0.02
2014-3-24,23,10,-3,14,2,0,100,71,35,16.29,16.29,15,3,18,0.00
2014-3-25,30,15,1,14,7,0,100,70,35,16.28,16.28,14,3,15,0.01
2014-3-26,24,17,11,18,9,0,97,67,49,16.27,16.27,20,4,26,0.00
2014-3-27,35,21,6,21,5,0,75,48,24,16.27,16.27,16,3,17,0.02
2014-3-28,39,32,26,37,29,8,100,88,41,16.24,16.24,12,2,14,0.37
2014-3-29,45,37,32,41,36,32,100,92,67,16.24,16.24,12,2,14,0.05
2014-3-30,38,33,27,38,32,26,100,96,90,16.24,16.24,15,2,15,0.66
2014-3-31,33,28,24,31,28,24,100,97,85,16.24,16.24,18,3,19,0.01